Regional Weather Roundup
Issued by NWS

Home | Current Version | Previous Version | Graphics & Text | Print | Product List | Glossary On
Versions: 1 2 3 4 5 6 7 8 9 10 11 12 13 14 15 16 17 18 19 20 21 22 23 24 25 26 27 28 29 30 31 32 33 34 35 36 37 38 39 40 41 42 43 44 45 46 47 48 49
000
ASUS43 KDMX 291907
RWRIA

WEATHER ROUNDUP FOR IOWA
NATIONAL WEATHER SERVICE DES MOINES IA
200 PM CDT FRI MAY 29 2015

NOTE: "FAIR" INDICATES FEW OR NO CLOUDS BELOW 12,000 FEET WITH NO
SIGNIFICANT WEATHER AND/OR OBSTRUCTIONS TO VISIBILITY.

* - THESE STATIONS ARE NOT NWS STATIONS...THUS NOT UNDER NWS
QUALITY CONTROL.  THEY ALSO DO NOT REPORT WEATHER SUCH
AS PRECIPITATION OR FOG.

IAZ001>003-012>014-020>022-031>034-043>046-292000-
   NORTHWEST IOWA

CITY           SKY/WX    TMP DP  RH WIND       PRES   REMARKS
CARROLL *      MOSUNNY   73  64  73 SW17G24   29.91S
CHEROKEE *     LGT RAIN  72  64  78 SW6       29.89S
DENISON *      MOSUNNY   73  68  83 SW12      29.90R
LE MARS *      DRIZZLE   66  64  94 NW8       29.92R
ORANGE CITY *  LGT RAIN  64  63  94 N8        29.91S
SHELDON *      CLOUDY    68  66  94 NW7       29.90R
SIOUX CITY     CLOUDY    76  59  55 W6        29.90S
SPENCER        CLOUDY    72  63  73 W12       29.90R
STORM LAKE *   MOSUNNY   73  61  64 SW12      29.91S
$$

IAZ055>058-069>071-079>083-090>094-292000-
   SOUTHWEST IOWA

CITY           SKY/WX    TMP DP  RH WIND       PRES   REMARKS
ATLANTIC *     CLOUDY    72  66  83 S14G20    29.94R
AUDUBON *      MOSUNNY   72  66  83 SW8       29.94S
CLARINDA *     CLOUDY    72  66  83 S10       29.97S
COUNCIL BLFS * SUNNY     75  63  64 SW9G15    29.93S
CRESTON *      PTSUNNY   70  66  88 SW18      29.96F
HARLAN  *      MOSUNNY   72  72 100 SW13      29.96S
LAMONI         LGT RAIN  70  65  84 SW12      29.98F
RED OAK *      PTSUNNY   73  66  78 S14       29.94S
SHENANDOAH *   PTSUNNY   75  66  73 S15G21    29.94F
$$

IAZ047>049-059>061-072>074-084-292000-
   CENTRAL IOWA

CITY           SKY/WX    TMP DP  RH WIND       PRES   REMARKS
AMES           CLOUDY    73  66  78 SW18G24   29.92S
ANKENY *       LGT RAIN  72  66  83 SW12G21   29.94R
CHARITON *     SUNNY     72  64  78 SW12G21   29.97S
DES MOINES     LGT RAIN  74  65  73 SW17G25   29.94R
GRINNELL*      CLOUDY    77  64  65 SW17      29.95R
KNOXVILLE *      N/A    N/A N/A N/A MISG        N/A
MARSHALLTOWN   CLOUDY    78  63  59 S13       29.92S HX  80
PELLA *        CLOUDY    75  68  78 SW12G18   29.96S
PERRY *        PTSUNNY   73  66  78 S16       29.92S
$$

IAZ004>006-015-016-023>025-035-036-292000-
   NORTH CENTRAL IOWA

CITY           SKY/WX    TMP DP  RH WIND       PRES   REMARKS
ALGONA *       MOSUNNY   73  64  73 SW14      29.91S
CLARION *      PTSUNNY   73  64  73 S10       29.91S
ESTHERVILLE    CLOUDY    70  63  78 W3        29.89S
FORT DODGE *   CLOUDY    73  63  68 SW7       29.91F
MASON CITY     CLOUDY    73  66  78 S9        29.92S
FOREST CITY *  MOSUNNY   70  64  83 SW7       29.91F
IOWA FALLS *   PTSUNNY   75  64  69 SW8       29.93S
$$

IAZ007>011-017>019-026>030-037>042-050>054-066-292000-
   NORTHEAST IOWA

CITY           SKY/WX    TMP DP  RH WIND       PRES   REMARKS
CEDAR RAPIDS   PTSUNNY   78  67  68 SW10      29.93S HX  80
CHARLES CITY * MOSUNNY   75  64  69 SW14      29.91S
CLINTON *      PTSUNNY   77  66  69 SW12G17   29.95F
DECORAH *      MOSUNNY   73  64  73 SW9G17    29.90F
DUBUQUE        CLOUDY    76  67  73 SW9       29.93F
MONTICELLO *   PTSUNNY   77  68  73 SW7G13    29.92F
OELWEIN *      SUNNY     77  63  61 SW15      29.93S
WATERLOO       CLOUDY    78  64  61 SW10      29.90F HX  80
$$

IAZ064-065-067-068-078-292000-
   EAST CENTRAL IOWA

CITY           SKY/WX    TMP DP  RH WIND       PRES   REMARKS
DAVENPORT      PTSUNNY   80  64  58 SW14      29.94F HX  82
IOWA CITY      PTSUNNY   79  67  66 SW10G16   29.94F HX  81
MT. PLEASANT * PTSUNNY   79  66  65 S13       29.96S HX  81
MUSCATINE *    PTSUNNY   79  68  69 SW12      29.94F HX  81
QUAD CITIES    PTSUNNY   80  67  64 SW14      29.93F HX  82
$$

IAZ062-063-075>077-085>089-095>099-292000-
   SOUTHEAST IOWA

CITY           SKY/WX    TMP DP  RH WIND       PRES   REMARKS
BURLINGTON     PTSUNNY   77  68  73 SW9       29.96F
FAIRFIELD *    MOSUNNY   79  66  65 W15       29.96S HX  81
FORT MADISON * MOSUNNY   75  68  78 S9        29.98S
KEOKUK *       MOSUNNY   75  68  78 SW9       29.97F
OSKALOOSA *    PTSUNNY   75  64  69 W18       29.96R
CENTERVILLE *  LGT RAIN  73  73 100 SW12      30.00S
OTTUMWA        TSTM      71  66  84 SW15G21   29.97R
WASHINGTON *   PTSUNNY   79  66  65 SW10      29.96S HX  81
$$

ABBREVIATIONS USED IN REMARKS
   TC - TEMPERATURES IN CELSIUS
  WCI - WIND CHILL INDEX
   HX - HEAT INDEX
  VSB - VISIBILITY
$$




USA.gov is the U.S. government's official web portal to all federal, state and local government web resources and services.